Location: Staunton
(38.1490°N, 79.0720°W)
Time: 01:19:20
(UTC-05:00)

ISS - Pass Details

Date: 10 November 2018
Orbit: 401 x 409 km, 51.6° (Epoch: 21 November)

Event Time Altitude Azimuth Distance (km) Brightness Sun altitude
Exits shadow 06:08:46 - 324° (NW) 1,673 -1.2 -8.9°
Reaches altitude 10° 06:09:21 10° 328° (NNW) 1,462 -1.4 -8.8°
Maximum altitude 06:12:16 29° 31° (NNE) 774 -2.2 -8.2°
Drops below altitude 10° 06:15:11 10° 94° (E) 1,460 0.6 -7.7°
Sets 06:17:26 0° 106° (ESE) 2,319 2.8 -7.3°
